DELTA 1 DEB, 10709

Orbit data source: Space-Track

DELTA 1 DEB, 10709 is space debris in SSO originally from a launch on Thu, 29 Jul 1976 UTC launched from the Air Force Western Test Range (AFWTR). Debris objects in space refer to the collection of defunct objects orbiting the Earth. Examples of debris include non-operational satellites, rocket bodies, and fragments generated from explosions, collisions, or faulty payload assembly.

Loading next visibility...
Identifier
10709, 1976-077AE
Orbit
SSO
Country
Flag of USUS
Related business
Manufacturer
Unknown
Mission
Spacecraft
Bus & Motor
Unknown
Mass
Unknown
Launch date (UTC)
1976-07-29 (50 years ago)
Launch vehicle
Unknown
Launch site
Air Force Western Test Range (AFWTR)
Object type
Payload
Rocket body
Debris
Shape & HBR
Unknown shape, 0.1 m
Radar Cross Section
Medium (>0.1 m² and <1 m²)

Expand to show TLE details & history
Last TLE update: 7 hours ago

TLE from 7 hours ago
0 DELTA 1 DEB
1 10709U 76077AE  26126.47749159 -.00000204  00000-0 -10928-2 0  9997
2 10709 101.9098 195.0964 0026620 218.6305 152.6699 12.46579283260836
Epoch: 2026-05-06T11:27Z
TLE epoch observation values (Epoch: 2026-05-06T11:27:35.273Z)
Latitude
11.14889°
Longitude
156.49141°
Altitude
1,499.244 km
Speed
7.107 km/s
True Right ascension
12h 50m 54s
True Declination
11° 05' 24"
Sunlit
Object was in full shadow at epoch
Visualization orbit readout
Latitude
Unknown
Longitude
Unknown
Altitude
Unknown
Speed
Unknown
Apparent Right ascension
Unknown
Apparent Declination
Unknown
Sunlit
N/A
Visualization observer readout
Local Sidereal Time
01:57:24
Azimuth
Unknown
Elevation
Unknown
Doppler factor
Unknown
Orbital elements
Apogee altitude
1,497.305 km
Perigee altitude
1,455.488 km
Semi-major axis
7,854.533 km
Eccentricity
0.00266
Inclination
101.9098°
RAAN
195.0964°
Arg. of periapsis
218.6305°
True anomaly
152.80954°
Mean anomaly
152.6699°
Eccentric anomaly
152.73976°
Mean motion
3.1179 °/min
Orbital period
115.46 mins
BSTAR
-0.0010928
Loading maneuver chart data...
Computing Atmospheric mass density...
Loading historical data...
Loading historical data...
Loading historical data...
Loading historical data...
Loading historical data...
Loading historical data...
Loading historical data...

Documentation

Showing up to 5 results
|